Time,TemperatureF,DewpointF,PressureIn,WindDirection,WindDirectionDegrees,WindSpeedMPH,WindSpeedGustMPH,Humidity,HourlyPrecipIn,Conditions,Clouds,dailyrainin,SolarRadiationWatts/m^2,SoftwareType,DateUTC
2013-09-26 00:04:00,72.0,72.0,-100.00,South,179,0.0,2.0,99,0.00,,,0.08,0.000000,,2013-09-26 04:04:00,
2013-09-26 00:44:00,72.0,72.0,-100.00,South,179,0.0,2.0,99,0.00,,,0.08,0.000000,,2013-09-26 04:44:00,
2013-09-26 00:54:00,72.0,72.0,-100.00,South,179,0.0,2.0,99,0.00,,,0.08,0.000000,,2013-09-26 04:54:00,
2013-09-26 01:23:00,72.0,72.0,-100.00,NNE,32,0.0,0.0,99,0.00,,,0.08,0.000000,,2013-09-26 05:23:00,
2013-09-26 01:34:00,72.0,72.0,-100.00,NNE,32,0.0,0.0,99,0.00,,,0.08,0.000000,,2013-09-26 05:34:00,
2013-09-26 01:43:00,72.0,72.0,-100.00,NNE,32,0.0,0.0,99,0.00,,,0.08,0.000000,,2013-09-26 05:43:00,
2013-09-26 01:52:00,72.0,72.0,-100.00,NNE,32,0.0,0.0,99,0.00,,,0.08,0.000000,,2013-09-26 05:52:00,
2013-09-26 02:02:00,72.0,72.0,-100.00,NNE,32,0.0,0.0,99,0.00,,,0.08,0.000000,,2013-09-26 06:02:00,
2013-09-26 02:22:00,72.0,72.0,-100.00,ESE,115,0.0,2.0,99,0.00,,,0.08,0.000000,,2013-09-26 06:22:00,
2013-09-26 02:33:00,72.0,72.0,-100.00,ESE,115,0.0,2.0,99,0.00,,,0.08,0.000000,,2013-09-26 06:33:00,
2013-09-26 02:42:00,72.0,72.0,-100.00,ESE,115,0.0,2.0,99,0.00,,,0.08,0.000000,,2013-09-26 06:42:00,
2013-09-26 02:54:00,72.0,72.0,-100.00,ESE,115,0.0,2.0,99,0.00,,,0.08,0.000000,,2013-09-26 06:54:00,
2013-09-26 03:02:00,72.0,72.0,-100.00,ESE,115,0.0,2.0,99,0.00,,,0.08,0.000000,,2013-09-26 07:02:00,
2013-09-26 03:22:00,72.0,72.0,-100.00,NE,51,0.0,3.0,99,0.00,,,0.08,0.000000,,2013-09-26 07:22:00,
2013-09-26 03:32:00,72.0,72.0,-100.00,NE,51,0.0,3.0,99,0.00,,,0.08,0.000000,,2013-09-26 07:32:00,
2013-09-26 03:42:00,72.0,72.0,-100.00,NE,51,0.0,3.0,99,0.00,,,0.08,0.000000,,2013-09-26 07:42:00,
2013-09-26 03:53:00,72.0,72.0,-100.00,NE,51,0.0,3.0,99,0.00,,,0.08,0.000000,,2013-09-26 07:53:00,
2013-09-26 04:03:00,72.0,72.0,-100.00,NE,51,0.0,3.0,99,0.00,,,0.08,0.000000,,2013-09-26 08:03:00,
2013-09-26 04:22:00,72.0,72.0,-100.00,North,349,1.0,2.0,100,0.00,,,0.08,0.000000,,2013-09-26 08:22:00,
2013-09-26 04:32:00,72.0,72.0,-100.00,North,349,1.0,2.0,100,0.00,,,0.08,0.000000,,2013-09-26 08:32:00,
2013-09-26 04:42:00,72.0,72.0,-100.00,North,349,1.0,2.0,100,0.00,,,0.08,0.000000,,2013-09-26 08:42:00,
2013-09-26 04:52:00,72.0,72.0,-100.00,North,349,1.0,2.0,100,0.00,,,0.08,0.000000,,2013-09-26 08:52:00,
2013-09-26 05:02:00,72.0,72.0,-100.00,North,349,1.0,2.0,100,0.00,,,0.08,0.000000,,2013-09-26 09:02:00,
2013-09-26 05:43:00,71.0,70.0,-100.00,NNW,348,2.0,6.0,97,0.06,,,0.14,0.000000,,2013-09-26 09:43:00,
2013-09-26 05:54:00,71.0,70.0,-100.00,NNW,348,2.0,6.0,97,0.06,,,0.14,0.000000,,2013-09-26 09:54:00,
2013-09-26 06:03:00,71.0,70.0,-100.00,NNW,348,2.0,6.0,97,0.06,,,0.14,0.000000,,2013-09-26 10:03:00,
2013-09-26 06:42:00,71.0,71.0,-100.00,NNW,336,2.0,5.0,99,0.00,,,0.14,0.000000,,2013-09-26 10:42:00,
2013-09-26 06:53:00,71.0,71.0,-100.00,NNW,336,2.0,5.0,99,0.00,,,0.14,0.000000,,2013-09-26 10:53:00,
2013-09-26 07:02:00,71.0,71.0,-100.00,NNW,336,2.0,5.0,99,0.00,,,0.14,0.000000,,2013-09-26 11:02:00,
2013-09-26 07:42:00,70.0,70.0,-100.00,NNW,335,2.0,5.0,99,0.00,,,0.13,0.000000,,2013-09-26 11:42:00,
2013-09-26 07:52:00,70.0,70.0,-100.00,NNW,335,2.0,5.0,99,0.00,,,0.13,0.000000,,2013-09-26 11:52:00,
2013-09-26 08:02:00,70.0,70.0,-100.00,NNW,335,2.0,5.0,99,0.00,,,0.13,0.000000,,2013-09-26 12:02:00,
2013-09-26 08:42:00,70.0,69.0,-100.00,North,352,3.0,9.0,98,0.00,,,0.12,8.000000,,2013-09-26 12:42:00,
2013-09-26 08:52:00,70.0,69.0,-100.00,North,352,3.0,9.0,98,0.00,,,0.12,8.000000,,2013-09-26 12:52:00,
2013-09-26 09:02:00,70.0,69.0,-100.00,North,352,3.0,9.0,98,0.00,,,0.12,8.000000,,2013-09-26 13:02:00,
2013-09-26 09:22:00,70.0,69.0,-100.00,North,1,3.0,10.0,97,0.00,,,0.12,62.000000,,2013-09-26 13:22:00,
2013-09-26 09:32:00,70.0,69.0,-100.00,North,1,3.0,10.0,97,0.00,,,0.12,62.000000,,2013-09-26 13:32:00,
2013-09-26 09:42:00,70.0,69.0,-100.00,North,1,3.0,10.0,97,0.00,,,0.12,62.000000,,2013-09-26 13:42:00,
2013-09-26 09:52:00,70.0,69.0,-100.00,North,1,3.0,10.0,97,0.00,,,0.12,62.000000,,2013-09-26 13:52:00,
2013-09-26 10:02:00,70.0,69.0,-100.00,North,1,3.0,10.0,97,0.00,,,0.12,62.000000,,2013-09-26 14:02:00,
2013-09-26 10:22:00,71.0,69.0,-100.00,NNE,16,3.0,9.0,95,0.00,,,0.09,115.000000,,2013-09-26 14:22:00,
2013-09-26 10:32:00,71.0,69.0,-100.00,NNE,16,3.0,9.0,95,0.00,,,0.09,115.000000,,2013-09-26 14:32:00,
2013-09-26 10:42:00,71.0,69.0,-100.00,NNE,16,3.0,9.0,95,0.00,,,0.09,115.000000,,2013-09-26 14:42:00,
2013-09-26 10:52:00,71.0,69.0,-100.00,NNE,16,3.0,9.0,95,0.00,,,0.09,115.000000,,2013-09-26 14:52:00,
2013-09-26 11:02:00,71.0,69.0,-100.00,NNE,16,3.0,9.0,95,0.00,,,0.09,115.000000,,2013-09-26 15:02:00,
2013-09-26 11:04:00,70.0,68.0,-100.00,NNW,331,4.0,9.0,95,0.00,,,0.07,95.000000,,2013-09-26 15:04:00,
2013-09-26 11:22:00,70.0,68.0,-100.00,NNW,331,4.0,9.0,95,0.00,,,0.07,95.000000,,2013-09-26 15:22:00,
2013-09-26 11:33:00,70.0,68.0,-100.00,NNW,331,4.0,9.0,95,0.00,,,0.07,95.000000,,2013-09-26 15:33:00,
2013-09-26 11:44:00,70.0,68.0,-100.00,NNW,331,4.0,9.0,95,0.00,,,0.07,95.000000,,2013-09-26 15:44:00,
2013-09-26 11:54:00,70.0,68.0,-100.00,NNW,331,4.0,9.0,95,0.00,,,0.07,95.000000,,2013-09-26 15:54:00,
2013-09-26 12:04:00,71.0,68.0,-100.00,North,6,4.0,9.0,91,0.00,,,0.07,136.000000,,2013-09-26 16:04:00,
2013-09-26 12:43:00,71.0,68.0,-100.00,North,6,4.0,9.0,91,0.00,,,0.07,136.000000,,2013-09-26 16:43:00,
2013-09-26 12:54:00,71.0,68.0,-100.00,North,6,4.0,9.0,91,0.00,,,0.07,136.000000,,2013-09-26 16:54:00,
2013-09-26 13:23:00,70.0,67.0,-100.00,North,1,3.0,8.0,91,0.00,,,0.07,125.000000,,2013-09-26 17:23:00,
2013-09-26 13:34:00,70.0,67.0,-100.00,North,1,3.0,8.0,91,0.00,,,0.07,125.000000,,2013-09-26 17:34:00,
2013-09-26 13:43:00,70.0,67.0,-100.00,North,1,3.0,8.0,91,0.00,,,0.07,125.000000,,2013-09-26 17:43:00,
2013-09-26 13:53:00,70.0,67.0,-100.00,North,1,3.0,8.0,91,0.00,,,0.07,125.000000,,2013-09-26 17:53:00,
2013-09-26 14:02:00,70.0,67.0,-100.00,North,1,3.0,8.0,91,0.00,,,0.07,125.000000,,2013-09-26 18:02:00,
2013-09-26 14:42:00,71.0,67.0,-100.00,NNW,331,4.0,6.0,88,0.00,,,0.07,156.000000,,2013-09-26 18:42:00,
2013-09-26 14:52:00,71.0,67.0,-100.00,NNW,331,4.0,6.0,88,0.00,,,0.07,156.000000,,2013-09-26 18:52:00,
2013-09-26 15:03:00,71.0,67.0,-100.00,NNW,331,4.0,6.0,88,0.00,,,0.07,156.000000,,2013-09-26 19:03:00,
2013-09-26 15:44:00,72.0,68.0,-100.00,North,355,3.0,9.0,87,0.00,,,0.07,179.000000,,2013-09-26 19:44:00,
2013-09-26 15:52:00,72.0,68.0,-100.00,North,355,3.0,9.0,87,0.00,,,0.07,179.000000,,2013-09-26 19:52:00,
2013-09-26 16:03:00,72.0,68.0,-100.00,North,355,3.0,9.0,87,0.00,,,0.07,179.000000,,2013-09-26 20:03:00,
2013-09-26 16:43:00,71.0,67.0,-100.00,North,356,3.0,9.0,87,0.00,,,0.06,115.000000,,2013-09-26 20:43:00,
2013-09-26 16:52:00,71.0,67.0,-100.00,North,356,3.0,9.0,87,0.00,,,0.06,115.000000,,2013-09-26 20:52:00,
2013-09-26 17:02:00,71.0,67.0,-100.00,North,356,3.0,9.0,87,0.00,,,0.06,115.000000,,2013-09-26 21:02:00,
2013-09-26 17:04:00,72.0,68.0,-100.00,North,1,3.0,7.0,86,0.00,,,0.06,134.000000,,2013-09-26 21:04:00,
2013-09-26 17:23:00,72.0,68.0,-100.00,North,1,3.0,7.0,86,0.00,,,0.06,134.000000,,2013-09-26 21:23:00,
2013-09-26 17:34:00,72.0,68.0,-100.00,North,1,3.0,7.0,86,0.00,,,0.06,134.000000,,2013-09-26 21:34:00,
2013-09-26 17:44:00,72.0,68.0,-100.00,North,1,3.0,7.0,86,0.00,,,0.06,134.000000,,2013-09-26 21:44:00,
2013-09-26 17:54:00,72.0,68.0,-100.00,North,1,3.0,7.0,86,0.00,,,0.06,134.000000,,2013-09-26 21:54:00,
2013-09-26 18:43:00,71.0,68.0,-100.00,North,355,3.0,10.0,89,0.00,,,0.06,67.000000,,2013-09-26 22:43:00,
2013-09-26 18:54:00,71.0,68.0,-100.00,North,355,3.0,10.0,89,0.00,,,0.06,67.000000,,2013-09-26 22:54:00,
2013-09-26 19:03:00,71.0,68.0,-100.00,North,355,3.0,10.0,89,0.00,,,0.06,67.000000,,2013-09-26 23:03:00,
2013-09-26 19:43:00,70.0,67.0,-100.00,NNW,341,3.0,6.0,91,0.00,,,0.06,22.000000,,2013-09-26 23:43:00,
2013-09-26 19:53:00,70.0,67.0,-100.00,NNW,341,3.0,6.0,91,0.00,,,0.06,22.000000,,2013-09-26 23:53:00,
2013-09-26 20:02:00,70.0,67.0,-100.00,NNW,341,3.0,6.0,91,0.00,,,0.06,22.000000,,2013-09-27 00:02:00,
2013-09-26 20:22:00,70.0,67.0,-100.00,North,352,3.0,7.0,91,0.00,,,0.06,1.000000,,2013-09-27 00:22:00,
2013-09-26 20:32:00,70.0,67.0,-100.00,North,352,3.0,7.0,91,0.00,,,0.06,1.000000,,2013-09-27 00:32:00,
2013-09-26 20:43:00,70.0,67.0,-100.00,North,352,3.0,7.0,91,0.00,,,0.06,1.000000,,2013-09-27 00:43:00,
2013-09-26 20:52:00,70.0,67.0,-100.00,North,352,3.0,7.0,91,0.00,,,0.06,1.000000,,2013-09-27 00:52:00,
2013-09-26 21:01:00,70.0,67.0,-100.00,North,352,3.0,7.0,91,0.00,,,0.06,1.000000,,2013-09-27 01:01:00,
2013-09-26 21:42:00,67.0,66.0,-100.00,East,97,0.0,4.0,96,0.00,,,0.06,0.000000,,2013-09-27 01:42:00,
2013-09-26 21:52:00,67.0,66.0,-100.00,East,97,0.0,4.0,96,0.00,,,0.06,0.000000,,2013-09-27 01:52:00,
2013-09-26 22:02:00,67.0,66.0,-100.00,East,97,0.0,4.0,96,0.00,,,0.06,0.000000,,2013-09-27 02:02:00,
2013-09-26 22:22:00,66.0,66.0,-100.00,NNE,24,0.0,1.0,99,0.00,,,0.06,0.000000,,2013-09-27 02:22:00,
2013-09-26 22:32:00,66.0,66.0,-100.00,NNE,24,0.0,1.0,99,0.00,,,0.06,0.000000,,2013-09-27 02:32:00,
2013-09-26 22:43:00,66.0,66.0,-100.00,NNE,24,0.0,1.0,99,0.00,,,0.06,0.000000,,2013-09-27 02:43:00,
2013-09-26 22:53:00,66.0,66.0,-100.00,NNE,24,0.0,1.0,99,0.00,,,0.06,0.000000,,2013-09-27 02:53:00,
2013-09-26 23:02:00,66.0,66.0,-100.00,NNE,24,0.0,1.0,99,0.00,,,0.06,0.000000,,2013-09-27 03:02:00,
2013-09-26 23:04:00,67.0,67.0,-100.00,South,175,0.0,0.0,99,0.00,,,0.06,0.000000,,2013-09-27 03:04:00,
2013-09-26 23:45:00,67.0,67.0,-100.00,South,175,0.0,0.0,99,0.00,,,0.06,0.000000,,2013-09-27 03:45:00,
2013-09-26 23:55:00,67.0,67.0,-100.00,South,175,0.0,0.0,99,0.00,,,0.06,0.000000,,2013-09-27 03:55:00,